,,Stat6,,Stat2,,Stat8,,Stat9,,Stat10,,Wind1,,Wind1,
time,status,PA1M_AVG,status,PR1M_SUM,status,RH1M_AVG,status,SR1M_AVG,status,TA1M_AVG,status,W1dAve1m,status,W1sAve1m,
2003-10-18, 00:00:00,VALID,919.652,VALID,0,VALID,98.3662,VALID,-0.0679233,VALID,18.82,VALID,67,VALID,0.860263,
2003-10-18, 00:01:00,VALID,919.616,VALID,0,VALID,98.1653,VALID,-0.0849042,VALID,18.8131,VALID,60,VALID,0.944767,
2003-10-18, 00:02:00,VALID,919.594,VALID,0,VALID,98.4781,VALID,-0.0849042,VALID,18.8424,VALID,52,VALID,1.00446,
2003-10-18, 00:03:00,VALID,919.596,VALID,0,VALID,97.9212,VALID,-0.0849042,VALID,18.8295,VALID,40,VALID,0.651389,
2003-10-18, 00:04:00,VALID,919.571,VALID,0,VALID,97.8017,VALID,-0.0509425,VALID,18.784,VALID,68,VALID,0.71503,
2003-10-18, 00:05:00,VALID,919.567,VALID,0,VALID,98.4616,VALID,-0.0169808,VALID,18.8417,VALID,81,VALID,0.681286,
2003-10-18, 00:06:00,VALID,919.56,VALID,0,VALID,98.4018,VALID,-0.0169808,VALID,18.8996,VALID,109,VALID,0.676054,
2003-10-18, 00:07:00,VALID,919.535,VALID,0,VALID,97.939,VALID,0,VALID,18.8968,VALID,125,VALID,0.743902,
2003-10-18, 00:08:00,VALID,919.514,VALID,0,VALID,97.7877,VALID,-0.0169808,VALID,18.8417,VALID,133,VALID,0.946875,
2003-10-18, 00:09:00,VALID,919.498,VALID,0,VALID,97.9479,VALID,0,VALID,18.8188,VALID,129,VALID,1.06788,
2003-10-18, 00:10:00,VALID,919.47,VALID,0,VALID,97.9771,VALID,0,VALID,18.7962,VALID,126,VALID,1.2847,
2003-10-18, 00:11:00,VALID,919.464,VALID,0,VALID,98.1145,VALID,0,VALID,18.7676,VALID,125,VALID,1.33957,
2003-10-18, 00:12:00,VALID,919.453,VALID,0,VALID,98.4451,VALID,-0.0169808,VALID,18.7711,VALID,117,VALID,1.14688,
2003-10-18, 00:13:00,VALID,919.445,VALID,0,VALID,98.6028,VALID,0,VALID,18.7808,VALID,110,VALID,1.04961,
2003-10-18, 00:14:00,VALID,919.44,VALID,0,VALID,98.7096,VALID,-0.0169808,VALID,18.7997,VALID,110,VALID,1.00818,
2003-10-18, 00:15:00,VALID,919.448,VALID,0,VALID,98.3256,VALID,-0.0339617,VALID,18.8061,VALID,111,VALID,0.998326,
2003-10-18, 00:16:00,VALID,919.434,VALID,0,VALID,97.794,VALID,-0.0169808,VALID,18.7321,VALID,101,VALID,0.946837,
2003-10-18, 00:17:00,VALID,919.438,VALID,0,VALID,98.2264,VALID,-0.0339617,VALID,18.707,VALID,128,VALID,1.35919,
2003-10-18, 00:18:00,VALID,919.432,VALID,0,VALID,98.3828,VALID,0,VALID,18.7095,VALID,126,VALID,1.33008,
2003-10-18, 00:19:00,VALID,919.427,VALID,0,VALID,98.571,VALID,-0.0169808,VALID,18.7063,VALID,132,VALID,1.14408,
2003-10-18, 00:20:00,VALID,919.404,VALID,0,VALID,98.6562,VALID,-0.0339617,VALID,18.7127,VALID,132,VALID,0.933966,
2003-10-18, 00:21:00,VALID,919.37,VALID,0,VALID,98.4654,VALID,-0.0169808,VALID,18.7194,VALID,130,VALID,1.05087,
2003-10-18, 00:22:00,VALID,919.336,VALID,0,VALID,98.2683,VALID,-0.0679233,VALID,18.7132,VALID,130,VALID,1.0439,
2003-10-18, 00:23:00,VALID,919.289,VALID,0,VALID,98.0178,VALID,-0.0509425,VALID,18.6775,VALID,128,VALID,0.884807,
2003-10-18, 00:24:00,VALID,919.247,VALID,0,VALID,97.8945,VALID,-0.0509425,VALID,18.6588,VALID,127,VALID,0.697129,
2003-10-18, 00:25:00,VALID,919.208,VALID,0,VALID,97.9046,VALID,-0.0169808,VALID,18.6228,VALID,130,VALID,0.64043,
2003-10-18, 00:26:00,VALID,919.172,VALID,0,VALID,98.1615,VALID,-0.0169808,VALID,18.6096,VALID,130,VALID,0.749256,
2003-10-18, 00:27:00,VALID,919.148,VALID,0,VALID,98.2823,VALID,-0.0339617,VALID,18.6163,VALID,133,VALID,0.703658,
2003-10-18, 00:28:00,VALID,919.129,VALID,0,VALID,98.5099,VALID,-0.0169808,VALID,18.6389,VALID,134,VALID,0.64082,
2003-10-18, 00:29:00,VALID,919.131,VALID,0,VALID,98.5303,VALID,-0.0169808,VALID,18.6452,VALID,134,VALID,0.301153,
2003-10-18, 00:30:00,VALID,919.114,VALID,0,VALID,98.5583,VALID,-0.0509425,VALID,18.6512,VALID,134,VALID,0.309524,
2003-10-18, 00:31:00,VALID,919.108,VALID,0,VALID,98.6829,VALID,-0.0339617,VALID,18.6839,VALID,134,VALID,0.422061,
2003-10-18, 00:32:00,VALID,919.098,VALID,0,VALID,98.9283,VALID,-0.0169808,VALID,18.7227,VALID,134,VALID,0.439135,
2003-10-18, 00:33:00,VALID,919.083,VALID,0,VALID,98.9995,VALID,0.0169808,VALID,18.7709,VALID,134,VALID,0.37872,
2003-10-18, 00:34:00,VALID,919.051,VALID,0,VALID,98.7884,VALID,-0.0169808,VALID,18.7907,VALID,134,VALID,0.435632,
2003-10-18, 00:35:00,VALID,919.025,VALID,0,VALID,98.8431,VALID,0,VALID,18.79,VALID,134,VALID,0.454033,
2003-10-18, 00:36:00,VALID,919.011,VALID,0,VALID,98.8024,VALID,0,VALID,18.8295,VALID,134,VALID,0.430414,
2003-10-18, 00:37:00,VALID,918.991,VALID,0,VALID,98.5799,VALID,-0.0339617,VALID,18.8133,VALID,148,VALID,0.565848,
2003-10-18, 00:38:00,VALID,918.983,VALID,0,VALID,98.4565,VALID,-0.0339617,VALID,18.7778,VALID,151,VALID,0.517361,
2003-10-18, 00:39:00,VALID,918.997,VALID,0,VALID,98.1285,VALID,-0.0169808,VALID,18.7227,VALID,143,VALID,0.419141,
2003-10-18, 00:40:00,VALID,918.997,VALID,0,VALID,97.8233,VALID,-0.0509425,VALID,18.6521,VALID,121,VALID,0.506479,
2003-10-18, 00:41:00,VALID,919.007,VALID,0,VALID,98.0178,VALID,-0.0169808,VALID,18.6066,VALID,121,VALID,0.43641,
2003-10-18, 00:42:00,VALID,918.997,VALID,0,VALID,98.3357,VALID,-0.0339617,VALID,18.5972,VALID,120,VALID,0.316592,
2003-10-18, 00:43:00,VALID,918.99,VALID,0,VALID,98.1768,VALID,-0.0339617,VALID,18.5714,VALID,94,VALID,0.332386,
2003-10-18, 00:44:00,VALID,919.002,VALID,0,VALID,98.3306,VALID,-0.0169808,VALID,18.5455,VALID,90,VALID,0.0961119,
2003-10-18, 00:45:00,VALID,918.997,VALID,0,VALID,98.4209,VALID,-0.0509425,VALID,18.552,VALID,90,VALID,0.126453,
2003-10-18, 00:46:00,VALID,918.984,VALID,0,VALID,98.4273,VALID,-0.101885,VALID,18.5361,VALID,90,VALID,0.161806,
2003-10-18, 00:47:00,VALID,918.962,VALID,0,VALID,98.6867,VALID,-0.0509425,VALID,18.5619,VALID,90,VALID,0.148065,
2003-10-18, 00:48:00,VALID,918.97,VALID,0,VALID,98.7045,VALID,-0.0339617,VALID,18.5781,VALID,97,VALID,0.221799,
2003-10-18, 00:49:00,VALID,918.947,VALID,0,VALID,98.8431,VALID,-0.0339617,VALID,18.584,VALID,118,VALID,0.521076,
2003-10-18, 00:50:00,VALID,918.949,VALID,0,VALID,98.8177,VALID,-0.0679233,VALID,18.6069,VALID,99,VALID,0.421113,
2003-10-18, 00:51:00,VALID,918.959,VALID,0,VALID,98.0572,VALID,-0.0339617,VALID,18.5135,VALID,28,VALID,0.865327,
2003-10-18, 00:52:00,VALID,918.962,VALID,0,VALID,97.5461,VALID,-0.0509425,VALID,18.3804,VALID,30,VALID,0.545573,
2003-10-18, 00:53:00,VALID,918.973,VALID,0,VALID,97.9415,VALID,-0.0169808,VALID,18.3617,VALID,54,VALID,0.359375,
2003-10-18, 00:54:00,VALID,918.967,VALID,0,VALID,98.5748,VALID,-0.0679233,VALID,18.394,VALID,65,VALID,0.329241,
2003-10-18, 00:55:00,VALID,918.984,VALID,0,VALID,99.0516,VALID,-0.0849042,VALID,18.4487,VALID,89,VALID,0.479421,
2003-10-18, 00:56:00,VALID,918.972,VALID,0,VALID,99.2564,VALID,-0.0679233,VALID,18.5038,VALID,89,VALID,0.34375,
2003-10-18, 00:57:00,VALID,918.975,VALID,0,VALID,99.531,VALID,-0.0509425,VALID,18.5711,VALID,89,VALID,0.350836,
2003-10-18, 00:58:00,VALID,918.978,VALID,0,VALID,99.0923,VALID,-0.0169808,VALID,18.5587,VALID,89,VALID,0.455171,
2003-10-18, 00:59:00,VALID,918.977,VALID,0,VALID,98.8189,VALID,-0.0509425,VALID,18.5165,VALID,86,VALID,0.484028,
2003-10-18, 01:00:00,VALID,918.983,VALID,0,VALID,98.3014,VALID,-0.0509425,VALID,18.4357,VALID,72,VALID,0.590199,
2003-10-18, 01:01:00,VALID,918.974,VALID,0,VALID,98.7045,VALID,-0.0339617,VALID,18.4551,VALID,72,VALID,0.557173,
2003-10-18, 01:02:00,VALID,918.966,VALID,0,VALID,98.8482,VALID,-0.0679233,VALID,18.4906,VALID,72,VALID,0.35428,
2003-10-18, 01:03:00,VALID,918.944,VALID,0,VALID,99.0631,VALID,-0.0339617,VALID,18.5488,VALID,72,VALID,0.0655887,
2003-10-18, 01:04:00,VALID,918.929,VALID,0,VALID,98.9652,VALID,-0.0339617,VALID,18.5677,VALID,72,VALID,0,
2003-10-18, 01:05:00,VALID,918.919,VALID,0,VALID,98.7528,VALID,0,VALID,18.5446,VALID,72,VALID,0.0459872,
2003-10-18, 01:06:00,VALID,918.887,VALID,0,VALID,98.6422,VALID,0,VALID,18.5294,VALID,72,VALID,0.1163,
2003-10-18, 01:07:00,VALID,918.861,VALID,0,VALID,98.4286,VALID,-0.0169808,VALID,18.4934,VALID,105,VALID,0.512153,
2003-10-18, 01:08:00,VALID,918.837,VALID,0,VALID,98.379,VALID,0.0169808,VALID,18.4646,VALID,130,VALID,0.903764,
2003-10-18, 01:09:00,VALID,918.819,VALID,0,VALID,98.7515,VALID,0,VALID,18.4613,VALID,134,VALID,1.10078,
2003-10-18, 01:10:00,VALID,918.792,VALID,0,VALID,99.1801,VALID,0,VALID,18.4897,VALID,135,VALID,1.09175,
2003-10-18, 01:11:00,VALID,918.791,VALID,0,VALID,99.2716,VALID,0,VALID,18.519,VALID,129,VALID,1.21413,
2003-10-18, 01:12:00,VALID,918.781,VALID,0,VALID,99.3403,VALID,-0.0339617,VALID,18.5225,VALID,140,VALID,1.16335,
2003-10-18, 01:13:00,VALID,918.769,VALID,0,VALID,99.5107,VALID,0,VALID,18.5381,VALID,149,VALID,1.23964,
2003-10-18, 01:14:00,VALID,918.769,VALID,0,VALID,99.5412,VALID,0,VALID,18.5444,VALID,146,VALID,1.16367,
2003-10-18, 01:15:00,VALID,918.76,VALID,0,VALID,99.5387,VALID,-0.0339617,VALID,18.5319,VALID,144,VALID,1.10321,
2003-10-18, 01:16:00,VALID,918.745,VALID,0,VALID,99.6696,VALID,0,VALID,18.5255,VALID,142,VALID,1.23008,
2003-10-18, 01:17:00,VALID,918.724,VALID,0,VALID,99.8426,VALID,0,VALID,18.5518,VALID,131,VALID,1.08212,
2003-10-18, 01:18:00,VALID,918.689,VALID,0,VALID,99.9252,VALID,0,VALID,18.5704,VALID,134,VALID,1.20293,
2003-10-18, 01:19:00,VALID,918.663,VALID,0,VALID,99.9964,VALID,0,VALID,18.6126,VALID,127,VALID,1.14008,
2003-10-18, 01:20:00,VALID,918.64,VALID,0,VALID,100,VALID,0.0169808,VALID,18.6447,VALID,128,VALID,0.912791,
2003-10-18, 01:21:00,VALID,918.624,VALID,0,VALID,100,VALID,-0.0339617,VALID,18.6514,VALID,133,VALID,0.737805,
2003-10-18, 01:22:00,VALID,918.604,VALID,0,VALID,100,VALID,0,VALID,18.6514,VALID,132,VALID,0.769531,
2003-10-18, 01:23:00,VALID,918.601,VALID,0,VALID,100,VALID,-0.0169808,VALID,18.6546,VALID,139,VALID,0.706032,
2003-10-18, 01:24:00,VALID,918.588,VALID,0,VALID,100,VALID,0,VALID,18.6387,VALID,174,VALID,0.424237,
2003-10-18, 01:25:00,VALID,918.581,VALID,0,VALID,99.998,VALID,0.0169808,VALID,18.6191,VALID,146,VALID,0.515447,
2003-10-18, 01:26:00,VALID,918.556,VALID,0,VALID,99.9748,VALID,0,VALID,18.5769,VALID,144,VALID,0.370427,
2003-10-18, 01:27:00,VALID,918.548,VALID,0,VALID,99.8998,VALID,0,VALID,18.5476,VALID,124,VALID,0.56064,
2003-10-18, 01:28:00,VALID,918.508,VALID,0,VALID,99.8909,VALID,0.0169808,VALID,18.5222,VALID,106,VALID,0.843564,
2003-10-18, 01:29:00,VALID,918.491,VALID,0,VALID,99.9479,VALID,0.0169808,VALID,18.4862,VALID,112,VALID,0.915625,
2003-10-18, 01:30:00,VALID,918.461,VALID,0,VALID,99.998,VALID,0.0339617,VALID,18.4925,VALID,119,VALID,1.00491,
2003-10-18, 01:31:00,VALID,918.436,VALID,0,VALID,100,VALID,0,VALID,18.5314,VALID,123,VALID,0.81808,
2003-10-18, 01:32:00,VALID,918.406,VALID,0,VALID,100,VALID,0,VALID,18.5381,VALID,126,VALID,1.14236,
2003-10-18, 01:33:00,VALID,918.385,VALID,0,VALID,100,VALID,0.0169808,VALID,18.5444,VALID,125,VALID,1.29706,
2003-10-18, 01:34:00,VALID,918.358,VALID,0,VALID,100,VALID,0.0169808,VALID,18.5478,VALID,124,VALID,1.19673,
2003-10-18, 01:35:00,VALID,918.346,VALID,0,VALID,100,VALID,0.0169808,VALID,18.5414,VALID,123,VALID,1.19379,
2003-10-18, 01:36:00,VALID,918.337,VALID,0,VALID,100,VALID,0,VALID,18.5347,VALID,121,VALID,0.942649,
2003-10-18, 01:37:00,VALID,918.33,VALID,0,VALID,100,VALID,0.0169808,VALID,18.4992,VALID,113,VALID,0.881882,
2003-10-18, 01:38:00,VALID,918.33,VALID,0,VALID,100,VALID,0.0169808,VALID,18.4835,VALID,102,VALID,0.725174,
2003-10-18, 01:39:00,VALID,918.306,VALID,0,VALID,100,VALID,0,VALID,18.4934,VALID,98,VALID,0.842507,
2003-10-18, 01:40:00,VALID,918.291,VALID,0,VALID,100,VALID,0.0169808,VALID,18.4994,VALID,97,VALID,0.892671,
2003-10-18, 01:41:00,VALID,918.277,VALID,0,VALID,100,VALID,0.0339617,VALID,18.5031,VALID,89,VALID,0.851199,
2003-10-18, 01:42:00,VALID,918.262,VALID,0,VALID,100,VALID,0,VALID,18.4733,VALID,85,VALID,0.857013,
2003-10-18, 01:43:00,VALID,918.269,VALID,0,VALID,100,VALID,0.0169808,VALID,18.4701,VALID,91,VALID,0.959517,
2003-10-18, 01:44:00,VALID,918.248,VALID,0,VALID,100,VALID,0.0169808,VALID,18.4639,VALID,88,VALID,0.896019,
2003-10-18, 01:45:00,VALID,918.254,VALID,0,VALID,100,VALID,0,VALID,18.4803,VALID,93,VALID,1.13616,
2003-10-18, 01:46:00,VALID,918.248,VALID,0,VALID,100,VALID,0,VALID,18.4865,VALID,89,VALID,0.96946,
2003-10-18, 01:47:00,VALID,918.212,VALID,0,VALID,100,VALID,0.0169808,VALID,18.4932,VALID,94,VALID,0.84468,
2003-10-18, 01:48:00,VALID,918.187,VALID,0,VALID,100,VALID,-0.0169808,VALID,18.4803,VALID,107,VALID,1.1361,
2003-10-18, 01:49:00,VALID,918.162,VALID,0,VALID,100,VALID,0.0339617,VALID,18.4895,VALID,102,VALID,1.16225,
2003-10-18, 01:50:00,VALID,918.133,VALID,0,VALID,100,VALID,0.0339617,VALID,18.4992,VALID,94,VALID,0.821057,
2003-10-18, 01:51:00,VALID,918.101,VALID,0,VALID,100,VALID,0,VALID,18.4766,VALID,85,VALID,0.616044,
2003-10-18, 01:52:00,VALID,918.09,VALID,0,VALID,100,VALID,0,VALID,18.4671,VALID,80,VALID,0.500174,
2003-10-18, 01:53:00,VALID,918.065,VALID,0,VALID,100,VALID,0.0169808,VALID,18.4443,VALID,82,VALID,0.539249,
2003-10-18, 01:54:00,VALID,918.055,VALID,0,VALID,100,VALID,0.0169808,VALID,18.4152,VALID,80,VALID,0.395275,
2003-10-18, 01:55:00,VALID,918.044,VALID,0,VALID,100,VALID,0.0509425,VALID,18.4088,VALID,80,VALID,0.465511,
2003-10-18, 01:56:00,VALID,918.037,VALID,0,VALID,100,VALID,0.0169808,VALID,18.4055,VALID,78,VALID,0.547585,
2003-10-18, 01:57:00,VALID,918.037,VALID,0,VALID,100,VALID,0.0509425,VALID,18.3827,VALID,38,VALID,0.777148,
2003-10-18, 01:58:00,VALID,918.042,VALID,0,VALID,100,VALID,0.0339617,VALID,18.334,VALID,37,VALID,0.542535,
2003-10-18, 01:59:00,VALID,918.027,VALID,0,VALID,100,VALID,0.0339617,VALID,18.3211,VALID,37,VALID,0.402876,
2003-10-18, 02:00:00,VALID,918.012,VALID,0,VALID,100,VALID,0,VALID,18.3216,VALID,37,VALID,0.386265,
2003-10-18, 02:01:00,VALID,917.992,VALID,0,VALID,100,VALID,0.0169808,VALID,18.3313,VALID,37,VALID,0.273242,
2003-10-18, 02:02:00,VALID,917.983,VALID,0,VALID,99.9944,VALID,0,VALID,18.3345,VALID,37,VALID,0.0375744,
2003-10-18, 02:03:00,VALID,917.972,VALID,0,VALID,99.9151,VALID,0,VALID,18.3151,VALID,37,VALID,0.0498512,
2003-10-18, 02:04:00,VALID,917.953,VALID,0,VALID,99.7828,VALID,0.0169808,VALID,18.2798,VALID,37,VALID,0.122768,
2003-10-18, 02:05:00,VALID,917.951,VALID,0,VALID,99.7841,VALID,0,VALID,18.2796,VALID,37,VALID,0,
2003-10-18, 02:06:00,VALID,917.945,VALID,0,VALID,99.8082,VALID,0,VALID,18.2798,VALID,37,VALID,0.17378,
2003-10-18, 02:07:00,VALID,917.938,VALID,0,VALID,99.7943,VALID,0.0339617,VALID,18.2893,VALID,68,VALID,0.410243,
2003-10-18, 02:08:00,VALID,917.916,VALID,0,VALID,99.7955,VALID,0.0169808,VALID,18.29,VALID,121,VALID,0.721839,
2003-10-18, 02:09:00,VALID,917.915,VALID,0,VALID,99.9667,VALID,0.0169808,VALID,18.3124,VALID,121,VALID,0.78869,
2003-10-18, 02:10:00,VALID,917.902,VALID,0,VALID,100,VALID,0,VALID,18.364,VALID,116,VALID,0.929332,
2003-10-18, 02:11:00,VALID,917.896,VALID,0,VALID,99.8321,VALID,0,VALID,18.3313,VALID,84,VALID,0.363735,
2003-10-18, 02:12:00,VALID,917.895,VALID,0,VALID,99.6493,VALID,0,VALID,18.257,VALID,85,VALID,0.452553,
2003-10-18, 02:13:00,VALID,917.903,VALID,0,VALID,99.6989,VALID,0.0169808,VALID,18.2476,VALID,105,VALID,0.696801,
2003-10-18, 02:14:00,VALID,917.895,VALID,0,VALID,99.8426,VALID,0.0339617,VALID,18.2342,VALID,129,VALID,1.1448,
2003-10-18, 02:15:00,VALID,917.896,VALID,0,VALID,100,VALID,0.0339617,VALID,18.2794,VALID,135,VALID,1.05171,
2003-10-18, 02:16:00,VALID,917.898,VALID,0,VALID,100,VALID,0.0169808,VALID,18.3345,VALID,139,VALID,1.03792,
2003-10-18, 02:17:00,VALID,917.892,VALID,0,VALID,100,VALID,0.0169808,VALID,18.37,VALID,136,VALID,1.14262,
2003-10-18, 02:18:00,VALID,917.878,VALID,0,VALID,100,VALID,0.0339617,VALID,18.3832,VALID,134,VALID,0.934495,
2003-10-18, 02:19:00,VALID,917.876,VALID,0,VALID,100,VALID,0.0169808,VALID,18.3732,VALID,136,VALID,0.912997,
2003-10-18, 02:20:00,VALID,917.871,VALID,0,VALID,100,VALID,0.0339617,VALID,18.3799,VALID,130,VALID,0.691051,
2003-10-18, 02:21:00,VALID,917.858,VALID,0,VALID,100,VALID,0.0509425,VALID,18.3633,VALID,128,VALID,1.28853,
2003-10-18, 02:22:00,VALID,917.839,VALID,0,VALID,100,VALID,0.0339617,VALID,18.3767,VALID,130,VALID,1.22816,
2003-10-18, 02:23:00,VALID,917.855,VALID,0,VALID,100,VALID,0.0509425,VALID,18.3702,VALID,125,VALID,1.09473,
2003-10-18, 02:24:00,VALID,917.873,VALID,0,VALID,100,VALID,0,VALID,18.3668,VALID,124,VALID,0.875372,
2003-10-18, 02:25:00,VALID,917.887,VALID,0,VALID,100,VALID,0.0169808,VALID,18.3666,VALID,121,VALID,0.828497,
2003-10-18, 02:26:00,VALID,917.939,VALID,0,VALID,100,VALID,0.0339617,VALID,18.3762,VALID,128,VALID,0.869048,
2003-10-18, 02:27:00,VALID,917.951,VALID,0,VALID,100,VALID,0,VALID,18.3636,VALID,120,VALID,1.24089,
2003-10-18, 02:28:00,VALID,917.988,VALID,0,VALID,100,VALID,0,VALID,18.3633,VALID,124,VALID,1.16788,
2003-10-18, 02:29:00,VALID,918.004,VALID,0,VALID,100,VALID,0,VALID,18.3677,VALID,125,VALID,0.996761,
2003-10-18, 02:30:00,VALID,918.023,VALID,0,VALID,99.9807,VALID,0.0339617,VALID,18.3668,VALID,110,VALID,1.01302,
2003-10-18, 02:31:00,VALID,918.028,VALID,0,VALID,99.8845,VALID,0,VALID,18.3506,VALID,110,VALID,1.38058,
2003-10-18, 02:32:00,VALID,918.061,VALID,0,VALID,99.8616,VALID,0,VALID,18.3543,VALID,113,VALID,1.33965,
2003-10-18, 02:33:00,VALID,918.084,VALID,0,VALID,99.9819,VALID,0.0169808,VALID,18.37,VALID,135,VALID,1.26108,
2003-10-18, 02:34:00,VALID,918.087,VALID,0,VALID,99.9832,VALID,0.0169808,VALID,18.3896,VALID,127,VALID,0.73056,
2003-10-18, 02:35:00,VALID,918.102,VALID,0,VALID,99.9774,VALID,0.0169808,VALID,18.3928,VALID,105,VALID,0.898785,
2003-10-18, 02:36:00,VALID,918.109,VALID,0,VALID,99.9405,VALID,0,VALID,18.3672,VALID,98,VALID,0.715843,
2003-10-18, 02:37:00,VALID,918.098,VALID,0,VALID,99.929,VALID,0.0679233,VALID,18.341,VALID,83,VALID,0.819949,
2003-10-18, 02:38:00,VALID,918.071,VALID,0,VALID,99.9596,VALID,0.0169808,VALID,18.3117,VALID,94,VALID,0.98165,
2003-10-18, 02:39:00,VALID,918.06,VALID,0,VALID,99.9794,VALID,0.0509425,VALID,18.3119,VALID,109,VALID,1.13281,
2003-10-18, 02:40:00,VALID,918.045,VALID,0,VALID,99.9964,VALID,0.0169808,VALID,18.3218,VALID,110,VALID,1.04324,
2003-10-18, 02:41:00,VALID,918.012,VALID,0,VALID,100,VALID,0.0169808,VALID,18.331,VALID,98,VALID,0.891406,
2003-10-18, 02:42:00,VALID,918,VALID,0,VALID,99.9723,VALID,0.0169808,VALID,18.3414,VALID,98,VALID,0.927689,
2003-10-18, 02:43:00,VALID,917.992,VALID,0,VALID,99.9151,VALID,0,VALID,18.3449,VALID,102,VALID,0.86795,
2003-10-18, 02:44:00,VALID,917.985,VALID,0,VALID,99.8515,VALID,0.0169808,VALID,18.3412,VALID,105,VALID,0.882422,
2003-10-18, 02:45:00,VALID,917.991,VALID,0,VALID,99.7943,VALID,0.0509425,VALID,18.3444,VALID,106,VALID,0.97526,
2003-10-18, 02:46:00,VALID,917.983,VALID,0,VALID,99.6963,VALID,0.0169808,VALID,18.3377,VALID,95,VALID,0.921693,
2003-10-18, 02:47:00,VALID,917.974,VALID,0,VALID,99.6162,VALID,0,VALID,18.3442,VALID,75,VALID,1.12553,
2003-10-18, 02:48:00,VALID,917.955,VALID,0,VALID,99.5323,VALID,0,VALID,18.3668,VALID,60,VALID,1.16388,
2003-10-18, 02:49:00,VALID,917.944,VALID,0,VALID,99.367,VALID,0.0679233,VALID,18.3958,VALID,63,VALID,1.10193,
2003-10-18, 02:50:00,VALID,917.911,VALID,0,VALID,99.1203,VALID,0.0849042,VALID,18.3919,VALID,78,VALID,1.13613,
2003-10-18, 02:51:00,VALID,917.9,VALID,0,VALID,99.0046,VALID,0.101885,VALID,18.3986,VALID,84,VALID,1.09699,
2003-10-18, 02:52:00,VALID,917.889,VALID,0,VALID,98.9652,VALID,0.0849042,VALID,18.418,VALID,89,VALID,1.10658,
2003-10-18, 02:53:00,VALID,917.878,VALID,0,VALID,98.8596,VALID,0.0679233,VALID,18.424,VALID,90,VALID,1.14751,
2003-10-18, 02:54:00,VALID,917.876,VALID,0,VALID,98.7185,VALID,0.101885,VALID,18.4371,VALID,92,VALID,0.997456,
2003-10-18, 02:55:00,VALID,917.888,VALID,0,VALID,98.5964,VALID,0.0509425,VALID,18.4341,VALID,90,VALID,0.716087,
2003-10-18, 02:56:00,VALID,917.888,VALID,0,VALID,98.66,VALID,0.0509425,VALID,18.4242,VALID,93,VALID,0.732922,
2003-10-18, 02:57:00,VALID,917.889,VALID,0,VALID,98.59,VALID,0.0509425,VALID,18.4309,VALID,88,VALID,0.587462,
2003-10-18, 02:58:00,VALID,917.883,VALID,0,VALID,98.5265,VALID,0.101885,VALID,18.3988,VALID,78,VALID,0.660442,
2003-10-18, 02:59:00,VALID,917.89,VALID,0,VALID,98.487,VALID,0.101885,VALID,18.3792,VALID,78,VALID,0.785689,
2003-10-18, 03:00:00,VALID,917.884,VALID,0,VALID,98.501,VALID,0.0849042,VALID,18.3698,VALID,80,VALID,0.820126,
2003-10-18, 03:01:00,VALID,917.879,VALID,0,VALID,98.5214,VALID,0.0849042,VALID,18.3693,VALID,87,VALID,0.838715,
2003-10-18, 03:02:00,VALID,917.857,VALID,0,VALID,98.4413,VALID,0.0679233,VALID,18.3894,VALID,73,VALID,0.839658,
2003-10-18, 03:03:00,VALID,917.832,VALID,0,VALID,98.3205,VALID,0.0679233,VALID,18.3857,VALID,56,VALID,0.863636,
2003-10-18, 03:04:00,VALID,917.821,VALID,0,VALID,98.0827,VALID,0,VALID,18.3613,VALID,40,VALID,0.85992,
2003-10-18, 03:05:00,VALID,917.805,VALID,0,VALID,97.8652,VALID,-0.0169808,VALID,18.3101,VALID,40,VALID,0.633984,
2003-10-18, 03:06:00,VALID,917.793,VALID,0,VALID,98.0013,VALID,0,VALID,18.2803,VALID,48,VALID,0.635231,
2003-10-18, 03:07:00,VALID,917.774,VALID,0,VALID,98.1183,VALID,-0.0509425,VALID,18.2642,VALID,56,VALID,0.47745,
2003-10-18, 03:08:00,VALID,917.781,VALID,0,VALID,98.1221,VALID,-0.0339617,VALID,18.2805,VALID,55,VALID,0.392401,
2003-10-18, 03:09:00,VALID,917.767,VALID,0,VALID,97.9987,VALID,-0.0339617,VALID,18.2775,VALID,43,VALID,0.468217,
2003-10-18, 03:10:00,VALID,917.74,VALID,0,VALID,97.8754,VALID,-0.0169808,VALID,18.2547,VALID,42,VALID,0.188953,
2003-10-18, 03:11:00,VALID,917.737,VALID,0,VALID,97.808,VALID,-0.0509425,VALID,18.2326,VALID,42,VALID,0.281944,
2003-10-18, 03:12:00,VALID,917.723,VALID,0,VALID,97.8067,VALID,0,VALID,18.1837,VALID,42,VALID,0.249628,
2003-10-18, 03:13:00,VALID,917.717,VALID,0,VALID,97.9059,VALID,-0.0169808,VALID,18.1678,VALID,42,VALID,0.182478,
2003-10-18, 03:14:00,VALID,917.705,VALID,0,VALID,98.1666,VALID,-0.0509425,VALID,18.1675,VALID,42,VALID,0.226004,
2003-10-18, 03:15:00,VALID,917.707,VALID,0,VALID,98.3815,VALID,-0.0169808,VALID,18.2003,VALID,42,VALID,0.0756479,
2003-10-18, 03:16:00,VALID,917.729,VALID,0,VALID,98.4603,VALID,-0.0169808,VALID,18.2231,VALID,42,VALID,0,
2003-10-18, 03:17:00,VALID,917.732,VALID,0,VALID,98.4082,VALID,-0.0339617,VALID,18.2261,VALID,42,VALID,0,
2003-10-18, 03:18:00,VALID,917.737,VALID,0,VALID,98.3459,VALID,-0.0169808,VALID,18.2164,VALID,42,VALID,0,
2003-10-18, 03:19:00,VALID,917.754,VALID,0,VALID,98.3408,VALID,-0.0169808,VALID,18.2164,VALID,42,VALID,0,
2003-10-18, 03:20:00,VALID,917.764,VALID,0,VALID,98.3446,VALID,-0.0339617,VALID,18.2166,VALID,42,VALID,0,
2003-10-18, 03:21:00,VALID,917.77,VALID,0,VALID,98.3243,VALID,-0.0169808,VALID,18.2033,VALID,42,VALID,0.108865,
2003-10-18, 03:22:00,VALID,917.775,VALID,0,VALID,98.3879,VALID,-0.0339617,VALID,18.197,VALID,103,VALID,0.397879,
2003-10-18, 03:23:00,VALID,917.787,VALID,0,VALID,98.4578,VALID,-0.0169808,VALID,18.1772,VALID,150,VALID,0.503997,
2003-10-18, 03:24:00,VALID,917.807,VALID,0,VALID,98.5112,VALID,-0.0509425,VALID,18.1874,VALID,133,VALID,0.548147,
2003-10-18, 03:25:00,VALID,917.81,VALID,0,VALID,98.5532,VALID,0,VALID,18.1643,VALID,130,VALID,0.871289,
2003-10-18, 03:26:00,VALID,917.807,VALID,0,VALID,98.6104,VALID,-0.0679233,VALID,18.1615,VALID,132,VALID,0.813227,
2003-10-18, 03:27:00,VALID,917.796,VALID,0,VALID,98.5913,VALID,-0.0679233,VALID,18.1551,VALID,137,VALID,0.706287,
2003-10-18, 03:28:00,VALID,917.775,VALID,0,VALID,98.6854,VALID,-0.0339617,VALID,18.1454,VALID,134,VALID,1.01261,
2003-10-18, 03:29:00,VALID,917.763,VALID,0,VALID,98.8062,VALID,-0.0339617,VALID,18.1546,VALID,130,VALID,1.0998,
2003-10-18, 03:30:01,VALID,917.76,VALID,0,VALID,98.8469,VALID,-0.0169808,VALID,18.168,VALID,131,VALID,0.884673,
2003-10-18, 03:31:00,VALID,917.755,VALID,0,VALID,98.8431,VALID,-0.0509425,VALID,18.1839,VALID,124,VALID,1.0538,
2003-10-18, 03:32:00,VALID,917.75,VALID,0,VALID,98.66,VALID,-0.0509425,VALID,18.1968,VALID,130,VALID,0.938058,
2003-10-18, 03:33:00,VALID,917.756,VALID,0,VALID,98.4883,VALID,-0.0169808,VALID,18.21,VALID,116,VALID,0.335574,
2003-10-18, 03:34:00,VALID,917.775,VALID,0,VALID,98.3344,VALID,-0.0169808,VALID,18.2095,VALID,69,VALID,0.42702,
2003-10-18, 03:35:01,VALID,917.786,VALID,0,VALID,98.1946,VALID,-0.0679233,VALID,18.2037,VALID,64,VALID,0.581555,
2003-10-18, 03:36:01,VALID,917.784,VALID,0,VALID,98.1412,VALID,-0.0509425,VALID,18.1904,VALID,73,VALID,0.618096,
2003-10-18, 03:37:00,VALID,917.785,VALID,0,VALID,98.1208,VALID,-0.0339617,VALID,18.2007,VALID,76,VALID,0.546875,